www.pogodaiklimat.ru
Время
(UTC), дата
10 30.11
11 30.11
12 30.11
13 30.11
14 30.11
15 30.11
16 30.11
17 30.11
18 30.11
19 30.11
20 30.11
21 30.11
22 30.11
23 30.11
00 1.12
01 1.12
02 1.12
03 1.12
04 1.12
05 1.12
06 1.12
07 1.12
08 1.12
09 1.12
10 1.12
11 1.12
12 1.12
13 1.12
14 1.12
15 1.12
16 1.12
17 1.12
18 1.12
19 1.12
20 1.12
21 1.12
22 1.12
23 1.12
00 2.12
01 2.12
02 2.12
03 2.12
04 2.12
05 2.12
06 2.12
07 2.12
08 2.12
09 2.12
10 2.12
11 2.12
12 2.12
13 2.12
14 2.12
15 2.12
16 2.12
17 2.12
18 2.12
19 2.12
20 2.12
21 2.12
22 2.12
23 2.12
00 3.12
01 3.12
02 3.12
03 3.12
04 3.12
05 3.12
06 3.12
07 3.12
08 3.12
09 3.12
10 3.12
11 3.12
12 3.12
13 3.12
14 3.12
15 3.12
16 3.12
17 3.12
18 3.12
19 3.12
20 3.12
21 3.12
22 3.12
23 3.12
00 4.12
01 4.12
02 4.12
03 4.12
04 4.12
05 4.12
06 4.12
07 4.12
08 4.12
09 4.12
10 4.12
11 4.12
12 4.12
13 4.12
14 4.12
15 4.12
16 4.12
17 4.12
18 4.12
19 4.12
20 4.12
21 4.12
22 4.12
23 4.12
00 5.12
01 5.12
02 5.12
03 5.12
04 5.12
05 5.12
06 5.12
07 5.12
08 5.12
09 5.12
10 5.12
11 5.12
12 5.12
13 5.12
14 5.12
15 5.12
16 5.12
17 5.12
18 5.12
19 5.12
20 5.12
21 5.12
22 5.12
23 5.12
00 6.12
01 6.12
02 6.12
03 6.12
04 6.12
05 6.12
06 6.12
07 6.12
08 6.12
09 6.12
10 6.12
11 6.12
12 6.12
13 6.12
14 6.12
15 6.12
16 6.12
17 6.12
18 6.12
19 6.12
20 6.12
21 6.12
22 6.12
23 6.12
00 7.12
01 7.12
02 7.12
03 7.12
04 7.12
05 7.12
06 7.12
07 7.12
08 7.12
09 7.12
10 7.12
Ветер
(напр.,м/с)
Видим. Явления Облачность Т
(С)
Тd
(С)
f
(%)
Тe
(С)
Тes
(С)
Комфортность P
(гПа)
Po
(гПа)
Тmin
(С)
Tmax
(С)
R
(мм)
R24
(мм)
S
(см)
Ю 1-2
{3}
30 км 1/1 540 м
[Cu Sc]
+4.7 +0.7 75 +4 +5 тепло 1025.3 1012.3
ЮВ 1-2
{2}
30 км 1/1 720 м
[Cu Sc]
+6.0 +1.3 72 +5 +7 тепло 1025.0 1012.1
Ю 1-2
{3}
30 км 1/1 600 м
[Cu hum]
+6.7 +1.3 68 +6 +8 тепло 1024.8 1011.9
Ю 1-2
{2}
35 км 3/3 660 м
[Cu Sc]
+6.7 +0.8 66 +6 +7 тепло 1024.5 1011.6
В 1-3
{3}
40 км 4/4 700 м
[Cu Sc]
+6.9 +0.3 63 +6 +7 тепло 1024.1 1011.2
В 1-2
{3}
40 км 4/4 750 м
[Cu Sc Ci]
+5.6 0.0 67 +5 +5 по сезону 1023.8 1010.9
В 3-4
{5}
40 км 1/1 870 м
[Sc Ci]
+5.0 +0.2 71 +2 +2 по сезону 1024.1 1011.1
В 4-4
{5}
40 км 1/1 870 м
[Sc Ci sp]
+3.8 0.0 76 -1 -1 по сезону 1023.9 1010.9
СВ 1 40 км 1/0
[Ci sp]
+1.7 -0.3 87 -0 -0 по сезону 1024.1 1011.0 -0.3 +7.5
В 2-4
{4}
40 км 1/0
[Ci sp]
+0.9 -0.4 91 -3 -3 по сезону 1024.2 1011.0
СВ 2-4
{4}
30 км 3/0
[Ci sp]
+0.6 -0.6 92 -3 -3 по сезону 1024.2 1011.0
В 2-3
{4}
25 км 4/0
[Ci sp]
0.0 -0.9 94 -4 -4 прохладно 1024.1 1010.9
СВ 3-4
{4}
25 км 6/0
[Ci sp]
-0.1 -1.2 92 -5 -5 по сезону 1023.6 1010.4
СВ 4-6
{6}
25 км 9/0
[Ci]
-0.6 -1.5 94 -6 -6 по сезону 1022.9 1009.7
В 3-4
{6}
25 км 9/0
[Ci]
-0.5 -1.4 94 -5 -5 прохладно 1022.8 1009.6
В 1-2
{4}
23 км 9/0
[Ci sp]
-0.7 -1.7 93 -3 -3 по сезону 1022.7 1009.5
В 2-3
{4}
23 км 9/0
[Ac As Cs]
-0.8 -1.9 92 -5 -5 по сезону 1022.6 1009.4
В 3 25 км 9/0
[Ac As Cs]
-0.3 -1.2 94 -5 -5 прохладно 1021.9 1008.7
В 3-3
{4}
25 км 9/0
[Ac As Cs]
-0.7 -1.7 93 -6 -6 по сезону 1021.1 1007.9
СВ 5-7
{7}
30 км 9/0
[Ac trans Cs]
+0.4 -1.2 89 -6 -6 по сезону 1020.3 1007.2
С 4 30 км 10/0
[Ac trans Cs]
+0.5 -1.4 87 -5 -5 прохладно 1020.0 1006.9 -1.2 +2.2
СВ 4-6
{6}
40 км осадки на расстоянии 10/0
[As trans Cs]
+1.1 -1.4 83 -4 -4 по сезону 1019.5 1006.4
С 4-7
{7}
40 км осадки на расстоянии 10/0
[As trans Cs]
+0.9 -1.8 82 -4 -4 по сезону 1019.8 1006.7
С 5 50 км осадки на расстоянии 10/0
[As trans Cs]
+1.6 -1.7 79 -4 -4 прохладно 1019.9 1006.8
С 6-8
{8}
50 км осадки на расстоянии 10/0
[As trans Cs]
+2.5 -2.2 71 -3 -3 по сезону 1019.9 1006.9
СВ 7-9
{11}
50 км осадки на расстоянии 10/0
[Ac As]
+3.2 -2.1 68 -3 -2 по сезону 1019.4 1006.4
СВ 5 50 км осадки на расстоянии 10/0
[Ac As]
+3.4 -2.4 66 -1 -1 прохладно 1019.6 1006.6
СВ 5-8
{9}
50 км осадки на расстоянии 10/0
[Ac As]
+3.3 -1.7 70 -2 -1 по сезону 1018.9 1005.9
СВ 5-7
{8}
50 км осадки на расстоянии 10/0
[Ac As]
+3.4 -1.7 69 -1 -1 по сезону 1018.6 1005.6
СВ 4-6
{9}
60 км 10/0
[Ac As]
+3.3 -1.5 71 -1 -1 прохладно 1018.7 1005.7
С 3-6
{7}
55 км 10/0
[Ac trans]
+3.1 -1.6 71 -1 -1 по сезону 1018.7 1005.7
С 4-7
{9}
50 км 9/0
[Ac trans]
+3.0 -1.6 72 -1 -1 по сезону 1018.9 1005.9
С 4 50 км 9/0
[Ac trans]
+3.0 -1.7 71 -1 -1 по сезону 1019.2 1006.2 +0.5 +3.6
СВ 4-6
{7}
50 км 9/0
[Ac trans]
+3.0 -1.8 71 -1 -1 по сезону 1019.6 1006.6
СВ 5-7
{8}
50 км 9/0
[Ac trans]
+2.9 -1.6 72 -2 -2 по сезону 1019.5 1006.5
С 4-6
{8}
50 км 10/0
[As op]
+2.9 -1.7 72 -2 -2 по сезону 1019.8 1006.8
С 3-4
{6}
50 км 10/1 1500 м
[Sc As op]
+3.0 -1.8 71 -1 -1 по сезону 1020.2 1007.2
С 4-6
{6}
50 км 10/0
[Ac trans]
+2.9 -1.7 72 -2 -2 по сезону 1020.5 1007.5
С 4-5
{8}
50 км 10/0
[Ac trans]
+2.8 -1.6 73 -2 -2 по сезону 1021.0 1008.0
С 4-6
{6}
40 км 10/0
[Ac trans]
+2.5 -1.3 76 -2 -2 по сезону 1021.7 1008.6
С 4-5
{6}
40 км 6/0
[Ac As]
+2.4 -1.6 75 -2 -2 тепло 1022.2 1009.1
С 3-5
{6}
40 км 1/0
[Ac trans]
+1.5 -1.9 78 -3 -3 по сезону 1022.6 1009.5
С 3-4
{5}
40 км 1/0
[Ac trans]
-0.5 -2.5 86 -5 -5 по сезону 1023.3 1010.1
СЗ 2-2
{5}
30 км 1/1 1320 м
[Sc]
-1.8 -2.8 93 -6 -6 по сезону 1024.1 1010.8
Ю 1 25 км 1/1 1500 м
[Sc]
-2.3 -3.7 90 -5 -5 прохладно 1024.8 1011.5 -2.5 +3.3
Ю 1-2
{2}
50 км 3/3 1500 м
[Sc]
-1.6 -2.8 92 -4 -4 по сезону 1025.3 1012.0
Ю 1-3
{3}
50 км 4/3 1110 м
[Sc Ci fib]
-2.4 -4.0 89 -5 -5 по сезону 1026.2 1012.8
Ю 1 50 км 5/4 720 м
[Cu Sc Ac trans Ci fib]
-0.7 -2.9 85 -3 -2 прохладно 1026.8 1013.5
Ю 2-3
{4}
50 км 8/6 800 м
[Cu Sc Ci fib]
+3.1 -1.7 71 0 +1 по сезону 1027.2 1014.1
ЮЗ 4-5
{5}
50 км 8/8 800 м
[Cu Sc Ci fib]
+4.0 -0.6 72 -0 0 тепло 1027.2 1014.1
ЮЗ 3-5
{6}
45 км 4/3 600 м
[Cu Sc Ci fib]
+5.4 -0.6 65 +2 +3 по сезону 1027.3 1014.3
З 4-6
{8}
45 км 8/1 600 м
[Cu Sc Ac trans Ci fib]
+5.8 0.0 66 +2 +3 по сезону 1027.0 1014.0
СЗ 4-6
{7}
45 км 8/4 630 м
[Cu Sc Ac As Ci fib]
+5.3 +0.4 71 +2 +2 тепло 1027.0 1014.0
СЗ 4-5
{8}
50 км 8/5 540 м
[Cu Sc Ac lent Ci fib]
+4.2 +0.6 77 0 0 по сезону 1027.3 1014.3
З 3-4
{5}
40 км осадки на расстоянии 9/9 500 м
[Cu Sc]
+3.4 +0.5 81 -0 -0 по сезону 1027.8 1014.7
ЮЗ 2-3
{5}
40 км в посл. час морось 9/9 500 м
[Cu Sc]
+2.7 +0.8 87 -0 -0 тепло 1027.9 1014.8
ЮЗ 2 40 км {морось} 8/8 540 м
[Cu Sc]
+3.2 +1.4 88 0 0 по сезону 1028.6 1015.5 -3.2 +6.4 0.0
З 2-4
{4}
35 км 1/1 1200 м
[Sc]
+1.4 +0.4 93 -2 -2 по сезону 1028.9 1015.7
ЮЗ 3-3
{3}
25 км 4/4 1350 м
[Sc]
-0.9 -1.7 94 -6 -6 по сезону 1029.1 1015.8
Ю 2-2
{4}
25 км 6/6 1500 м
[Sc]
+0.9 +0.2 95 -3 -3 прохладно 1029.0 1015.8
В 1-1
{3}
25 км 8/8 1200 м
[Sc]
+1.3 +1.0 98 -1 -1 по сезону 1029.5 1016.3
Ю 1-2
{2}
20 км 9/9 870 м
[Sc]
+0.5 -0.2 95 -2 -2 тепло 1029.9 1016.6
Ю 1 20 км 10/10 1050 м
[Sc]
+1.1 +0.3 94 -1 -1 по сезону 1029.6 1016.4
ЮЗ 2-3
{3}
20 км 10/10 660 м
[Sc]
+1.3 +0.5 94 -2 -2 по сезону 1029.7 1016.5
Ю 2-3
{3}
18 км 10/10 420 м
[Sc]
+1.4 +0.8 96 -2 -2 тепло 1030.1 1016.9
ЮЗ 2-3
{3}
15 км 5/5 420 м
[Sc]
+1.4 +0.6 94 -2 -2 по сезону 1029.5 1016.3
Ю 1-2
{2}
15 км 10/10 450 м
[Sc]
+1.5 +0.7 94 -0 -0 по сезону 1029.8 1016.6
Ю 2-2
{2}
12 км в посл. час морось 10/10 400 м
[Sc]
+2.0 +1.2 94 -1 -1 тепло 1029.7 1016.5
ЮЗ 2 8000 м дождь {морось} 10/10 300 м
[Sc]
+2.1 +1.5 96 -1 -1 по сезону 1029.9 1016.7 -1.1 +3.3 0.2 0.2
Ю 2-3
{3}
7000 м слаб. морось {дождь} 10/10 360 м
[Sc]
+2.3 +1.8 96 -1 -1 по сезону 1030.3 1017.1
Ю 2-3
{3}
5000 м в посл. час дождь {морось} 9/9 90 м
[Sc]
+2.5 +2.0 96 -1 -1 тепло 1030.4 1017.2
Ю 2 5000 м дымка {дождь} 10/10 60 м
[Sc]
+2.9 +2.4 97 -0 -0 по сезону 1030.4 1017.3 0.0
Ю 2-4
{4}
7000 м дымка 10/10 90 м
[Sc]
+3.2 +2.6 96 0 0 по сезону 1030.5 1017.4
ЮЗ 2-3
{3}
8000 м 9/9 90 м
[Sc]
+3.9 +3.0 94 +1 +1 тепло 1030.0 1016.9
Ю 2 9000 м {дождь, морось} 9/9 90 м
[Sc]
+4.4 +3.2 92 +2 +2 по сезону 1029.4 1016.3
ЮВ 1-2
{2}
11 км 10/10 120 м
[St]
+4.8 +3.5 91 +3 +3 тепло 1029.0 1016.0
ЮВ 2-3
{3}
12 км 10/10 150 м
[Sc]
+4.9 +3.3 89 +2 +2 тепло 1028.6 1015.6
ЮВ 1 12 км 9/9 180 м
[Sc]
+5.0 +3.1 88 +4 +4 по сезону 1028.7 1015.7
Ю 1-2
{2}
12 км 9/9 210 м
[Sc]
+4.7 +3.1 89 +3 +3 тепло 1028.8 1015.8
ЮЗ 1-1
{2}
12 км 9/9 210 м
[Sc]
+4.5 +3.1 91 +3 +3 тепло 1029.1 1016.1
СЗ 1 11 км 4/4 210 м
[Sc]
+3.6 +2.6 93 +2 +2 по сезону 1028.8 1015.7 +2.1 +5.2
ЮЗ 1-2
{2}
8000 м местами туман поземный 3/3 210 м
[Sc]
+1.6 +1.2 97 -0 -0 по сезону 1028.8 1015.6
В 2-4
{4}
6000 м местами туман поземный туман 3/3 60 м
[St]
+0.9 +0.6 98 -3 -3 по сезону 1028.7 1015.5
В 3-3
{5}
200 м туман ?/? +1.1 +1.1 100 -4 -4 прохладно 1028.7 1015.5
В 2-2
{4}
200 м туман ?/? +2.0 +2.0 100 -2 -2 по сезону 1028.3 1015.1
С 2-3
{3}
400 м туман ?/? +3.0 +3.0 100 -0 -0 тепло 1027.7 1014.6
В 2-3
{5}
200 м туман ?/? +2.7 +2.6 99 -1 -1 по сезону 1027.3 1014.2
В 3-3
{4}
100 м туман ?/? +2.0 +2.0 100 -3 -3 по сезону 1026.9 1013.8
В 2-3
{3}
100 м туман ?/? +1.4 +1.4 100 -2 -2 тепло 1026.6 1013.4
В 2-3
{4}
100 м туман ?/? +0.6 +0.6 100 -3 -3 по сезону 1025.9 1012.7
В 3-3
{3}
800 м туман 8/8 30 м
[St]
-0.4 -0.4 100 -5 -5 по сезону 1025.5 1012.3
СВ 2-3
{3}
3000 м в посл. час туман туман 4/4 30 м
[St]
-0.3 -0.3 100 -4 -4 по сезону 1025.6 1012.4
СВ 2 2800 м туман на расстоянии 5/5 30 м
[St]
0.0 0.0 100 -4 -4 прохладно 1025.6 1012.4 -0.5 +3.6
С 3-4
{4}
1100 м туман на расстоянии 5/5 30 м
[St]
-0.3 -0.4 99 -5 -5 по сезону 1025.7 1012.5
С 3-5
{5}
700 м туман 6/6 30 м
[St]
-0.3 -0.3 100 -5 -5 по сезону 1025.6 1012.4
В 2 1000 м в посл. час туман 9/9 30 м
[St]
+0.3 +0.3 100 -4 -3 прохладно 1025.7 1012.5
В 3-4
{4}
12 км 1/1 90 м
[St Ci fib]
+2.6 +1.4 92 -2 -1 по сезону 1025.4 1012.3
В 4-5
{5}
20 км 1/1 240 м
[St Ci fib]
+3.8 +0.6 80 -1 +1 тепло 1024.5 1011.5
СВ 4-5
{6}
25 км {туман} 3/0
[Ci fib]
+5.1 +0.5 72 +1 +2 по сезону 1023.6 1010.6
СВ 4-6
{6}
30 км 1/0
[Ci fib]
+5.5 -0.4 66 +2 +3 по сезону 1022.6 1009.7
СВ 4-6
{7}
30 км 1/0
[Ci fib]
+5.8 0.0 66 +2 +3 тепло 1022.1 1009.2
СВ 5-7
{7}
30 км 1/0
[Ci fib]
+5.4 +0.7 72 +1 +1 по сезону 1021.9 1009.0
СВ 4-6
{6}
30 км ясно +4.9 +0.7 74 +1 +1 по сезону 1021.6 1008.7
СВ 4-5
{6}
30 км ясно +2.6 -0.1 82 -2 -2 по сезону 1021.6 1008.6
В 3 30 км ясно +4.0 -1.5 67 +1 +1 по сезону 1021.7 1008.7 -0.5 +6.0
ЮВ 1-2
{3}
35 км ясно +2.3 -1.6 75 +1 +1 по сезону 1022.3 1009.2
В 4-4
{4}
40 км ясно +0.3 -2.2 83 -5 -5 по сезону 1022.4 1009.2
В 3-4
{5}
40 км ясно +2.7 -1.6 73 -1 -1 по сезону 1021.8 1008.8
В 2-2
{4}
35 км ясно -0.4 -2.7 84 -4 -4 по сезону 1022.2 1009.0
В 3-4
{4}
25 км ясно -1.4 -3.0 89 -6 -6 по сезону 1022.1 1008.9
В 4-4
{5}
25 км ясно -1.7 -3.1 90 -8 -8 холодно 1021.9 1008.6
СВ 3-3
{4}
25 км ясно -1.4 -2.8 90 -6 -6 по сезону 1022.2 1009.0
В 1-1
{3}
20 км ясно -2.6 -3.2 96 -5 -5 по сезону 1022.6 1009.3
В 2-2
{4}
20 км ясно -3.1 -3.8 95 -7 -7 холодно 1022.6 1009.3
Ю 1-2
{3}
18 км ясно -3.3 -4.1 94 -6 -6 по сезону 1022.8 1009.4
Ю 1-1
{3}
14 км 1/1 30 м
[St]
-4.1 -4.5 97 -7 -7 по сезону 1022.8 1009.4
Ю 1 12 км 1/1 <50 м
[St]
-4.5 -5.1 96 -7 -7 холодно 1023.0 1009.6 -4.9 +4.1
Ю 2-4
{4}
600 м туман 9/9 30 м
[St]
-3.3 -3.4 99 -8 -8 прохладно 1023.6 1010.2
Ю 2-3
{4}
200 м переохл. туман ?/? -2.3 -2.4 99 -7 -7 по сезону 1023.8 1010.5
ЮЗ 3-5
{5}
400 м переохл. туман ?/? -2.0 -2.1 99 -7 -7 холодно 1024.4 1011.1
Ю 2-3
{5}
400 м переохл. туман ?/? -2.2 -2.6 97 -6 -6 прохладно 1024.6 1011.3
ЮЗ 2-3
{5}
400 м переохл. туман ?/? -2.0 -2.3 98 -6 -6 по сезону 1024.7 1011.4
Ю 2-5
{5}
500 м переохл. туман 10/10 30 м
[St]
-1.7 -1.9 99 -6 -6 очень
холодно
1024.1 1010.8
ЮЗ 3-4
{4}
300 м переохл. туман ?/? -1.4 -1.4 100 -7 -7 холодно 1024.0 1010.7
Ю 2-4
{4}
600 м переохл. туман 10/10 30 м
[St]
-1.5 -1.8 98 -6 -6 по сезону 1023.8 1010.5
Ю 2-3
{5}
300 м переохл. туман ?/? -1.6 -1.9 98 -6 -6 холодно 1023.6 1010.3
Ю 2-5
{5}
300 м переохл. туман ?/? -1.5 -1.6 99 -6 -6 прохладно 1023.6 1010.3
ЮЗ 2-3
{4}
200 м переохл. туман ?/? -1.4 -1.5 99 -6 -6 по сезону 1023.7 1010.4
Ю 4 300 м переохл. туман ?/? -1.2 -1.3 99 -7 -7 холодно 1023.8 1010.5 -4.7 -1.2
ЮЗ 3-4
{6}
200 м переохл. туман ?/? -1.2 -1.3 99 -6 -6 прохладно 1023.6 1010.3
ЮЗ 4-5
{6}
500 м переохл. туман ?/? -1.3 -1.5 99 -7 -7 по сезону 1023.5 1010.2
З 3-3
{6}
600 м переохл. туман ?/? -1.6 -1.7 99 -7 -7 холодно 1023.4 1010.1
ЮЗ 3-4
{4}
800 м переохл. туман 10/10 30 м
[St]
-1.6 -2.0 97 -7 -7 прохладно 1023.0 1009.7
Ю 3-4
{5}
900 м переохл. туман 10/10 30 м
[St]
-1.6 -1.7 99 -7 -7 по сезону 1022.9 1009.6
Ю 3 1400 м в посл. час туман 10/10 30 м
[St]
-1.6 -1.8 99 -7 -7 холодно 1022.5 1009.2
ЮЗ 4-5
{6}
900 м переохл. туман 10/10 30 м
[St]
-1.7 -1.9 99 -8 -8 прохладно 1021.9 1008.6
ЮЗ 5-7
{7}
1600 м в посл. час туман туман 10/10 30 м
[St]
-1.3 -1.5 99 -8 -8 по сезону 1021.5 1008.3
Ю 5-7
{7}
1700 м дымка {туман} 10/10 30 м
[St]
-1.2 -1.5 98 -8 -8 холодно 1021.0 1007.8
ЮЗ 5-7
{9}
1800 м дымка 10/10 30 м
[St]
-1.5 -1.8 98 -8 -8 прохладно 1020.5 1007.3
ЮЗ 4-6
{8}
2500 м дымка 10/10 60 м
[St]
-1.8 -2.2 97 -8 -8 по сезону 1020.4 1007.2
Ю 3 5000 м дымка {туман} 10/10 100 м
[St]
-1.4 -1.9 96 -7 -7 холодно 1020.3 1007.1 -1.8 -1.1
Ю 4-6
{6}
6000 м дымка 10/10 180 м
[St]
-1.1 -1.6 96 -7 -7 по сезону 1020.2 1007.0
Ю 5-6
{6}
7000 м дымка 9/9 180 м
[St]
-0.8 -1.4 96 -7 -7 по сезону 1020.3 1007.1
Ю 4 7000 м дымка 10/10 180 м
[St]
-0.5 -1.4 94 -6 -6 холодно 1020.2 1007.0
Ю 5-7
{8}
8000 м 10/10 210 м
[St]
+0.2 -0.7 94 -6 -6 по сезону 1019.7 1006.6
Ю 3-6
{8}
8000 м 10/10 180 м
[St]
+1.2 -0.3 90 -3 -3 по сезону 1018.9 1005.8
Ю 4-6
{8}
8000 м 10/10 210 м
[St]
+1.8 +0.4 90 -3 -3 прохладно 1017.9 1004.9
Ю 3-5
{5}
8000 м 10/10 210 м
[St]
+2.4 +1.2 92 -2 -2 по сезону 1016.6 1003.6
Ю 5-8
{8}
8000 м 10/10 210 м
[St]
+3.0 +1.3 89 -2 -2 по сезону 1015.5 1002.6
Ю 4-5
{8}
8000 м слаб. дождь 10/1 210 м
[Frnb As op]
+3.2 +1.8 91 -2 -2 прохладно 1015.1 1002.2 0.1
Ю 5-7
{7}
8000 м слаб. дождь 10/8 210 м
[Sc As op]
+3.2 +2.0 92 -2 -2 по сезону 1014.8 1001.9
Ю 4-6
{6}
7000 м дождь 10/8 210 м
[Sc As op]
+3.0 +2.2 94 -2 -2 по сезону 1014.4 1001.5
Ю 4 8000 м слаб. дождь 10/8 210 м
[Sc As op]
+3.4 +2.7 95 -1 -1 по сезону 1013.5 1000.6 -1.3 +3.4 3
Ю 5-8
{8}
12 км слаб. дождь 10/9 330 м
[Sc Cs]
+4.5 +3.6 94 -1 -1 по сезону 1012.9 1000.1
Ю 6-9
{9}
10 км дождь 10/8 330 м
[Sc As op]
+5.0 +4.2 95 -0 -0 тепло 1012.5 999.7
Ю 7-10
{11}
25 км в посл. час дождь 10/9 330 м
[Sc]
+5.1 +3.9 92 -1 -1 по сезону 1012.1 999.3 5
ЮЗ 6-9
{11}
30 км в посл. час дождь 10/9 420 м
[Sc]
+5.5 +4.0 90 0 0 по сезону 1011.5 998.7
ЮЗ 6-8
{10}
30 км в посл. час дождь 10/10 420 м
[Sc]
+5.8 +4.1 89 +1 +1 тепло 1011.7 998.9
ЮЗ 8-10
{11}
30 км {дождь} 9/9 660 м
[Sc]
+6.2 +4.2 87 +1 +1 по сезону 1011.0 998.3 0.0
ЮЗ 7-10
{11}
40 км 9/9 500 м
[Sc]
+6.9 +4.7 86 +2 +2 тепло 1010.9 998.2
ЮЗ 7-9
{9}
20 км слаб. дождь 9/9 450 м
[Sc Cs]
+6.8 +5.9 94 +2 +2 тепло 1011.0 998.3
ЮЗ 5 7000 м дождь 10/6 210 м
[Sc As op]
+7.0 +6.4 96 +3 +3 тепло 1011.3 998.6 1
Ю 5-8
{8}
40 км слаб. дождь 8/8 360 м
[Sc]
+7.5 +6.6 94 +3 +3 тепло 1011.8 999.1
Ю 4-7
{7}
45 км в посл. час дождь 9/9 300 м
[Sc]
+7.6 +6.6 93 +4 +4 тепло 1012.4 999.7
ЮЗ 5 60 км {дождь} 9/8 600 м
[Cu Sc]
+7.8 +5.8 87 +4 +4 тепло 1013.4 1000.7 +3.4 +7.9 0.5 9.5
ЮЗ 4-6
{7}
40 км слаб. дождь 9/8 600 м
[Cu Sc]
+8.0 +5.5 84 +5 +5 тепло 1013.9 1001.2
ЮЗ 5-7
{7}
50 км в посл. час дождь туман 9/9 600 м
[Cu Sc]
+7.6 +5.9 89 +4 +4 тепло 1014.8 1002.1
ЮЗ 6 60 км в посл. час дождь 9/9 210 м
[Cu Sc]
+8.3 +6.1 86 +4 +4 тепло 1015.2 1002.5 0.0
ЮЗ 6-8
{9}
40 км осадки на расстоянии 9/9 660 м
[Cu Sc]
+8.9 +6.4 84 +5 +5 тепло 1016.1 1003.4
Местоположение метеостанции Франкфурт-на-Майне (Германия): широта 50.05 долгота 8.60 высота над уровнем моря 112 м.
В архиве по умолчанию представлена погода во Франкфурте-на-Майне за последнюю неделю. Архивные данные за месяц целиком и за предыдущие месяцы, начиная с января 2011 года, Вы можете получить, выбрав интересующий диапазон дат из раскрывающегося списка и нажав кнопку "Найти!".
*Определитесь, кто Вы:
Внимание! Время в таблицах - всемирное. Для получения местного времени необходимо прибавить поправку, которая равна 1 ч.
Смотрите также архив погоды в соседних городах и на ближайших метеорологических станциях:
Партнеры нашего сайта:      
Пояснения к столбцам:
  • Ветер - указаны скорость ветра в м/с - средняя за 10 мин, порывы в срок и между сроками (в фигурных скобках) и направление, откуда дует ветер: С - северный,
  • СВ - северо-восточный, В - восточный, ЮВ - юго-восточный, Ю - южный, ЮЗ - юго-западный, З - западный, СЗ - северо-западный.
  • Видимость - горизонтальная дальность видимости в метрах или километрах. При видимости от 1 до 10 км при отсутствии осадков обычно наблюдается дымка, при ухудшении видимости до 1 км и менее - туман. В сухую погоду видимость может ухудшаться дымом, пылью или мглою.
  • Явления - указаны атмосферные явления, наблюдавшиеся в срок или в последний час перед сроком; фигурными скобками обозначены явления, наблюдавшиеся между сроками (за 1-3 часа до срока); квадратными скобками обозначены град или гололедные отложения с указанием их диаметра в мм.
  • Облачность - указаны через наклонную черту общая и нижняя облачность в баллах и высота нижней границы облаков в метрах; квадратными скобками обозначены формы облаков: Ci - перистые, Cs - перисто-слоистые, Cc - перисто-кучевые, Ac - высококучевые, As - высокослоистые, Sc - слоисто-кучевые, Ns - слоисто-дождевые, Cu - кучевые, Cb - кучево-дождевые. Подробнее классификацию облаков см. в Атласе облаков (PDF).
  • T - Температура воздуха - температура, измеренная на высоте 2 м над землей.
  • Td - Температура точки росы - температура, при понижении до которой содержащийся в воздухе водяной пар достигнет насыщения.
  • f - Относительная влажность воздуха - влажноcть воздуха, измеренная на высоте 2 м над землей.
  • Te - Эффективная температура - температура, которую ощущает одетый по сезону человек в тени. Характеристика душности погоды. При расчете учитывается влияние влажности воздуха и скорости ветра на теплоощущения человека.
  • Tes - Эффективная температура на солнце - температура, которую ощущает человек, с поправкой на солнечный нагрев. Характеристика знойности погоды. Зависит от высоты солнца над горизонтом, облачности и скорости ветра. Ночью, в пасмурную погоду, а также при ветре 12 м/с и более поправка равна нулю.
  • P - Атмосферное давление - приведенное к уровню моря атмосферное давление.
  • Po - Атмосферное давление - измеренное на уровне метеостанции атмосферное давление.
  • Tmin - Минимальная температура - минимум температуры воздуха на высоте 2 м над землей.
  • Tmax - Максимальная температура - максимум температуры воздуха на высоте 2 м над землей.
  • R - Количество осадков - Количество выпавших осадков за период времени, мм. При наведении курсора мыши на число - период времени, за который выпало указанное количество осадков.
  • R24 - Количество осадков - Количество выпавших осадков за 24 часа, мм.
  • S - Снежный покров - Высота снежного покрова, см. При наведении курсора мыши на число - состояние снежного покрова и степень покрытия местности в баллах.